EW2516 Weather Reports


Display with metric or nautical units.
time (UTC)temp
F
wind
direction
speed
MPH
gust
MPH
rain 1hr
in
rain 24hr
in
rain mn
in
humidity
%
barometer
mb
20260503024519 61 158 4.0 8.0 0.00 0.00 0.00 40 1016.7
20260503023522 62 158 3.0 8.0 0.00 0.00 0.00 39 1016.6
20260503022538 63 135 3.0 6.0 0.00 0.00 0.00 38 1016.5
20260503021517 64 135 3.0 7.0 0.00 0.00 0.00 37 1016.7
20260503020518 65 135 3.0 6.0 0.00 0.00 0.00 36 1016.4
20260503015518 65 158 3.0 7.0 0.00 0.00 0.00 36 1016.9
20260503014518 65 158 3.0 6.0 0.00 0.00 0.00 35 1016.9
20260503013519 66 158 3.0 7.0 0.00 0.00 0.00 34 1017.0
20260503012517 67 158 3.0 8.0 0.00 0.00 0.00 33 1017.3
20260503011518 67 180 2.0 6.0 0.00 0.00 0.00 32 1017.4
20260503010538 68 180 4.0 9.0 0.00 0.00 0.00 32 1017.5
20260503005517 68 135 3.0 7.0 0.00 0.00 0.00 31 1017.6
20260503004519 68 135 2.0 5.0 0.00 0.00 0.00 31 1017.6
20260503003517 68 135 4.0 8.0 0.00 0.00 0.00 30 1017.7
20260503002537 68 135 3.0 7.0 0.00 0.00 0.00 30 1017.8
20260503001517 68 180 4.0 7.0 0.00 0.00 0.00 30 1017.8
20260503000518 68 225 2.0 5.0 0.00 0.00 0.00 31 1018.1
20260502235517 68 203 4.0 10.0 0.00 0.00 0.00 31 1018.0
20260502234517 69 135 2.0 6.0 0.00 0.00 0.00 30 1018.3
20260502233517 68 180 3.0 6.0 0.00 0.00 0.00 30 1018.2
20260502232517 68 203 4.0 7.0 0.00 0.00 0.00 30 1018.7
20260502231518 68 180 3.0 5.0 0.00 0.00 0.00 31 1018.9
20260502230517 68 68 1.0 3.0 0.00 0.00 0.00 32 1019.0
20260502225517 67 180 3.0 8.0 0.00 0.00 0.00 32 1019.2
20260502224538 67 293 5.0 14.0 0.00 0.00 0.00 33 1019.0
20260502223517 67 68 6.0 15.0 0.00 0.00 0.00 33 1019.1
20260502222518 67 113 1.0 5.0 0.00 0.00 0.00 33 1019.4
20260502221518 66 270 3.0 5.0 0.00 0.00 0.00 33 1019.3
20260502220538 68 203 5.0 12.0 0.00 0.00 0.00 32 1019.8
20260502215517 68 180 4.0 10.0 0.00 0.00 0.00 32 1019.9
20260502214558 67 158 3.0 7.0 0.00 0.00 0.00 33 1020.2
20260502213517 66 135 5.0 9.0 0.00 0.00 0.00 35 1020.3
20260502212518 66 135 5.0 12.0 0.00 0.00 0.00 34 1020.3
20260502211517 66 113 4.0 9.0 0.00 0.00 0.00 35 1020.6
20260502210517 66 180 4.0 9.0 0.00 0.00 0.00 35 1020.9
20260502205518 66 180 6.0 11.0 0.00 0.00 0.00 34 1021.0
20260502204518 65 113 4.0 9.0 0.00 0.00 0.00 35 1021.2
20260502203518 65 270 4.0 11.0 0.00 0.00 0.00 35 1021.3
20260502202518 64 113 2.0 7.0 0.00 0.00 0.00 37 1021.2
20260502201517 64 180 5.0 10.0 0.00 0.00 0.00 36 1021.3
20260502200517 63 180 5.0 12.0 0.00 0.00 0.00 38 1021.3
20260502195518 63 180 6.0 12.0 0.00 0.00 0.00 38 1021.5
20260502194518 64 225 2.0 6.0 0.00 0.00 0.00 37 1021.9
20260502193518 63 158 4.0 9.0 0.00 0.00 0.00 38 1021.9
20260502192518 63 158 3.0 8.0 0.00 0.00 0.00 38 1022.1
20260502191518 62 180 3.0 7.0 0.00 0.00 0.00 38 1022.2
20260502190517 61 203 3.0 8.0 0.00 0.00 0.00 40 1022.1
20260502185518 61 225 4.0 8.0 0.00 0.00 0.00 39 1022.2
20260502184558 61 180 5.0 9.0 0.00 0.00 0.00 39 1022.3
20260502183517 61 158 4.0 10.0 0.00 0.00 0.00 41 1022.7
20260502182538 60 180 3.0 8.0 0.00 0.00 0.00 41 1022.6
20260502181517 60 135 4.0 11.0 0.00 0.00 0.00 41 1022.9
20260502180516 59 180 6.0 12.0 0.00 0.00 0.00 41 1023.1
20260502170516 57 135 4.0 7.0 0.00 0.00 0.00 44 1023.4
20260502163516 56 135 1.0 6.0 0.00 0.00 0.00 49 1023.8
20260502162517 56 113 4.0 7.0 0.00 0.00 0.00 47 1023.5
20260502161518 55 135 2.0 5.0 0.00 0.00 0.00 48 1023.8
20260502160518 55 113 3.0 8.0 0.00 0.00 0.00 47 1023.8
20260502151516 51 0 1.0 3.0 0.00 0.00 0.00 53 1023.6
20260502150517 51 0.0 2.0 0.00 0.00 0.00 55 1023.6
20260502130516 45 293 1.0 3.0 0.00 0.00 0.00 72 1023.6
20260502123517 44 270 1.0 3.0 0.00 0.00 0.00 72 1023.3
20260502122516 44 270 2.0 4.0 0.00 0.00 0.00 73 1023.5
20260502121517 43 270 3.0 5.0 0.00 0.00 0.00 74 1023.2
20260502120517 43 270 1.0 3.0 0.00 0.00 0.00 74 1023.2
20260502115516 43 270 1.0 2.0 0.00 0.00 0.00 73 1023.2
20260502113516 44 270 1.0 3.0 0.00 0.00 0.00 72 1023.2
20260502112557 44 270 2.0 5.0 0.00 0.00 0.00 71 1023.7
20260502111516 44 293 1.0 4.0 0.00 0.00 0.00 71 1023.5
20260502110516 45 293 1.0 3.0 0.00 0.00 0.00 70 1024.0
20260502105537 45 293 4.0 6.0 0.00 0.00 0.00 70 1024.0
20260502104516 45 293 4.0 6.0 0.00 0.00 0.00 71 1023.8
20260502103517 44 293 3.0 6.0 0.00 0.00 0.00 71 1023.6
20260502102516 45 270 3.0 5.0 0.00 0.00 0.00 71 1023.8
20260502101517 45 293 2.0 5.0 0.00 0.00 0.00 69 1023.9
20260502100517 45 293 3.0 6.0 0.00 0.00 0.00 70 1024.0
20260502091516 46 293 4.0 8.0 0.00 0.00 0.00 68 1024.1
20260502090537 47 293 5.0 9.0 0.00 0.00 0.00 68 1024.4
20260502071517 47 270 4.0 7.0 0.00 0.00 0.00 69 1023.6
20260502070516 47 270 3.0 8.0 0.00 0.00 0.00 70 1023.6
20260502065517 46 270 4.0 7.0 0.00 0.00 0.00 69 1023.8
20260502064516 47 270 4.0 7.0 0.00 0.00 0.00 69 1023.7
20260502063517 47 270 3.0 6.0 0.00 0.00 0.00 68 1023.5
20260502062517 47 270 3.0 6.0 0.00 0.00 0.00 66 1023.4
20260502061516 48 293 3.0 6.0 0.00 0.00 0.00 65 1023.5
20260502060516 49 293 3.0 5.0 0.00 0.00 0.00 64 1023.8
20260502055518 49 293 3.0 7.0 0.00 0.00 0.00 64 1023.5
20260502054539 49 293 3.0 5.0 0.00 0.00 0.00 64 1023.4
20260502053517 49 293 3.0 5.0 0.00 0.00 0.00 64 1023.2
20260502052517 49 293 3.0 5.0 0.00 0.00 0.00 64 1023.3
20260502051519 50 293 3.0 6.0 0.00 0.00 0.00 63 1023.5
20260502050558 50 338 2.0 5.0 0.00 0.00 0.00 63 1023.4
20260502045518 50 338 2.0 4.0 0.00 0.00 0.00 63 1023.5
20260502044517 50 338 1.0 3.0 0.00 0.00 0.00 64 1023.3
20260502043518 50 0.0 2.0 0.00 0.00 0.00 63 1022.8
20260502042517 50 338 2.0 4.0 0.00 0.00 0.00 63 1022.6
20260502041518 51 338 3.0 6.0 0.00 0.00 0.00 63 1022.6
20260502040518 51 338 3.0 6.0 0.00 0.00 0.00 62 1022.6
20260502035518 51 0 3.0 6.0 0.00 0.00 0.00 61 1022.6
20260502034517 52 0 4.0 10.0 0.00 0.00 0.00 60 1022.4
20260502033518 52 338 5.0 10.0 0.00 0.00 0.00 59 1022.4
20260502032517 53 0 7.0 14.0 0.00 0.00 0.00 58 1022.2
20260502031517 53 23 7.0 13.0 0.00 0.00 0.00 57 1021.6
20260502030517 53 23 7.0 14.0 0.00 0.00 0.00 57 1021.5
20260502025517 54 23 7.0 13.0 0.00 0.00 0.00 56 1021.1